Location: São Paulo
(23.5507°S, 46.6334°W)
Time: 06:53:53
(UTC-03:00)

Vanguard 2 Rocket - Pass Details

Date: 24 February 2026
Orbit: 553 x 3286 km, 32.9° (Epoch: 7 March)

Event Time Altitude Azimuth Distance (km) Brightness Sun altitude
Rises 19:46:33 0° 330° (NNW) 3,772 10.2 -15.7°
Reaches altitude 10° 19:50:38 10° 351° (N) 2,399 9.0 -16.6°
Enters shadow 19:53:20 16° 20° (NNE) 1,815 8.1 -17.2°
